sat.trackr.live / text

‹ back to catalog

STARLINK-34623

NORAD 65018 · 2025-161D

PAYLOAD ACTIVE UNKNOWN

§ Identity

Operator
Country
US
Launch date
2025-07-30
Launch site
AFWTR
Launch vehicle
Mass (kg)
RCS (m²)

Purposes: comms

External: N2YO · Heavens-Above · Gunter

§ Orbital elements

Epoch: 2026-05-24T16:54:25.194528Z

Period
94.05 min
Inclination
53.1601°
Eccentricity
0.0003797
Mean motion
15.31063490 rev/d
Perigee alt
470.0 km
Apogee alt
475.2 km
Semi-major
6,850.8 km
B*
1.7920e-2
RAAN
301.4348°
Arg perigee
274.0127°
Mean anomaly
86.0440°
Rev number
4,696

§ Raw data

STARLINK-346231 65018U 25161D   26144.70445827  .00582420  00000+0  17920-1 0  99992 65018  53.1601 301.4348 0003797 274.0127  86.0440 15.31063490 46969

JSON: /api/v1/satellites/65018 · /tle

For live sub-satellite position, see the globe view (requires WebGL).

§ Visibility from observer

Set your observer location to see the next 7 days of passes ≥ 10°. The values pass through the URL so the page stays shareable.

No JS? Fill the form by hand. The geolocation button needs JavaScript.